Location: Glencoe Junction
(41.7313°N, 110.5602°W)
Time: 12:53:09
(UTC+00:00)

N. Korean satellite - Visible Passes

Search period start: 22 January 2022 00:00
Search period end: 01 February 2022 00:00
Orbit: 447 x 491 km, 97.3° (Epoch: 21 January)

Date Brightness Start Highest point End Pass type
(mag) Time Alt. Az. Time Alt. Az. Time Alt. Az.
22 Jan 8.4 12:28:45 10° NNE 12:37:22 - S 12:30:22 25° NNE visible
23 Jan 9.2 12:00:01 10° NE 12:07:56 - SSE 12:01:17 18° NE visible
23 Jan 8.1 13:33:28 10° NNW 13:35:21 18° NW 13:35:21 18° NW visible
24 Jan 7.3 13:03:39 10° N 13:12:30 - SSW 13:06:15 35° NW visible
25 Jan 7.1 12:34:21 10° NNE 12:43:01 - S 12:37:10 51° NNE visible
26 Jan 8.5 12:05:28 10° NNE 12:13:31 - S 12:08:05 29° ENE visible
26 Jan 8.1 13:39:15 10° NNW 13:41:37 17° WNW 13:42:09 16° WNW visible
27 Jan 9.7 11:37:21 10° ENE 11:43:59 - SSE 11:39:02 14° E visible
27 Jan 7.1 13:09:16 10° N 13:12:37 35° WNW 13:13:05 34° W visible
28 Jan 6.4 12:39:49 10° NNE 12:43:29 88° WNW 12:44:02 62° SSW visible
29 Jan 8.1 12:10:49 10° NNE 12:14:12 36° E 12:15:01 32° SE visible
29 Jan 8.3 13:44:58 10° NNW 13:47:00 14° WNW 13:49:02 10° W visible
30 Jan 9.5 11:42:27 10° NE 11:44:47 16° E 11:46:02 14° ESE visible
30 Jan 7.3 13:14:45 10° N 13:17:59 30° WNW 13:20:07 17° WSW visible
31 Jan 6.4 12:45:11 10° N 12:48:49 75° WNW 12:51:16 19° SSW visible
